TimeEST,TemperatureF,Dew PointF,Humidity,Sea Level PressureIn,VisibilityMPH,Wind Direction,Wind SpeedMPH,Gust SpeedMPH,PrecipitationIn,Events,Conditions,WindDirDegrees,DateUTC
12:53 AM,23.0,18.0,81,30.54,10.0,Calm,Calm,-,N/A,,Clear,0,2012-01-16 05:53:00
1:53 AM,21.0,17.1,85,30.54,10.0,Calm,Calm,-,N/A,,Clear,0,2012-01-16 06:53:00
2:53 AM,21.0,18.0,88,30.55,10.0,Calm,Calm,-,N/A,,Clear,0,2012-01-16 07:53:00
3:53 AM,19.9,17.1,89,30.55,10.0,Calm,Calm,-,N/A,,Clear,0,2012-01-16 08:53:00
4:53 AM,19.9,17.1,89,30.56,10.0,Calm,Calm,-,N/A,,Clear,0,2012-01-16 09:53:00
5:53 AM,19.9,17.1,89,30.57,10.0,Calm,Calm,-,N/A,,Clear,0,2012-01-16 10:53:00
6:53 AM,19.9,18.0,92,30.58,10.0,Calm,Calm,-,N/A,,Clear,0,2012-01-16 11:53:00
7:53 AM,19.9,17.1,89,30.58,10.0,Calm,Calm,-,N/A,,Clear,0,2012-01-16 12:53:00
8:53 AM,25.0,21.9,88,30.58,10.0,Calm,Calm,-,N/A,,Clear,0,2012-01-16 13:53:00
9:53 AM,30.9,21.0,67,30.57,10.0,SSW,6.9,-,N/A,,Clear,200,2012-01-16 14:53:00
10:53 AM,35.1,21.9,59,30.55,10.0,Variable,5.8,-,N/A,,Clear,0,2012-01-16 15:53:00
11:53 AM,39.9,21.0,47,30.51,10.0,SSW,9.2,-,N/A,,Clear,210,2012-01-16 16:53:00
12:53 PM,44.1,23.0,43,30.47,10.0,SW,11.5,16.1,N/A,,Clear,220,2012-01-16 17:53:00
1:53 PM,45.0,23.0,42,30.43,10.0,SSW,8.1,17.3,N/A,,Clear,200,2012-01-16 18:53:00
2:53 PM,46.0,24.1,42,30.41,10.0,Variable,5.8,16.1,N/A,,Mostly Cloudy,0,2012-01-16 19:53:00
3:53 PM,45.0,25.0,46,30.40,10.0,SSW,4.6,-,N/A,,Clear,200,2012-01-16 20:53:00
4:53 PM,44.1,26.1,49,30.39,10.0,South,4.6,-,N/A,,Overcast,190,2012-01-16 21:53:00
5:53 PM,43.0,26.1,51,30.39,10.0,Variable,4.6,-,N/A,,Overcast,0,2012-01-16 22:53:00
6:53 PM,42.8,26.6,53,30.38,10.0,SW,5.8,-,N/A,,Overcast,220,2012-01-16 23:53:00
7:53 PM,44.1,28.0,53,30.35,10.0,SSW,8.1,-,0.00,,Overcast,200,2012-01-17 00:53:00
8:53 PM,44.1,28.9,55,30.35,10.0,SSW,8.1,-,N/A,,Overcast,210,2012-01-17 01:53:00
9:53 PM,43.0,30.0,60,30.32,10.0,SSW,6.9,-,N/A,,Mostly Cloudy,200,2012-01-17 02:53:00
10:53 PM,42.8,30.2,61,30.31,10.0,SSW,6.9,-,N/A,,Clear,210,2012-01-17 03:53:00
11:53 PM,43.0,30.9,62,30.28,10.0,SW,10.4,-,N/A,,Overcast,220,2012-01-17 04:53:00